Hourly Weather Roundup
Issued by NWS Central Illinois

Home | Current Version | Previous Version | Text Only | Print | Product List | Glossary On
Versions: 1 2 3 4 5 6 7 8 9 10 11 12 13 14 15 16 17 18 19 20 21 22 23 24 25 26 27 28 29 30 31 32 33 34 35 36 37 38 39 40 41 42 43 44 45 46 47 48 49 50
000
NZUS43 KILX 182010
HWRILX

AREA WEATHER ROUNDUP
NATIONAL WEATHER SERVICE, LINCOLN IL
300 PM CDT FRI APR 18 2014


CITY           SKY/WX    TMP DP  RH WIND       PRES   REMARKS
BLOOMINGTON    SUNNY     62  29  29 VRB7      30.30F
CHAMPAIGN      SUNNY     67  38  34 NW10      30.28F
DANVILLE       MOSUNNY   67  40  36 NW10      30.25F
DECATUR        SUNNY     67  38  34 MISG      30.28F
FLORA          NOT AVBL
GALESBURG      SUNNY     62  34  35 NE5       30.30F
JACKSONVILLE   SUNNY     65  35  32 CALM      30.29F
LACON          SUNNY     62  33  34 NW3       30.29F
LAWRENCEVILLE  MOSUNNY   71  42  35 CALM      30.25F
LITCHFIELD     SUNNY     65  44  46 CALM      30.28F
$$


CITY           SKY/WX    TMP DP  RH WIND       PRES   REMARKS
LINCOLN        SUNNY     67  32  27 CALM      30.27F
MACOMB         SUNNY     62  31  30 E6        30.32F
MATTOON        SUNNY     68  43  40 W5        30.27F
MT CARMEL AP   SUNNY     72  37  28 W3        30.25F
OLNEY-NOBLE AP MOSUNNY   68  41  37 NW5       30.26F
PARIS          SUNNY     69  42  37 NW12      30.27F
PEORIA         SUNNY     66  35  31 VRB5      30.30F
PONTIAC        SUNNY     64  30  27 N5        30.29F
RANTOUL        SUNNY     67  30  25 CALM      30.29F
ROBINSON       SUNNY     72  42  34 NW7       30.26F
SPRINGFIELD    SUNNY     67  34  29 VRB5      30.29F
TAYLORVILLE    SUNNY     64  39  39 NW8       30.28F
$$

...REGIONAL REPORTS...


CITY           SKY/WX    TMP DP  RH WIND       PRES   REMARKS
CHICAGO O`HARE MOSUNNY   51  33  50 NE12      30.34F
KANKAKEE       SUNNY     62  41  46 NE6       30.30F
MOLINE         SUNNY     62  30  29 CALM      30.30F
MOUNT VERNON   SUNNY     70  41  35 N8        30.26F
PITTSFIELD     SUNNY     66  33  30 SW3       30.29F
QUINCY         SUNNY     64  36  35 N7        30.28F
ROCKFORD       MOSUNNY   59  28  30 NE6       30.32F
$$


CITY           SKY/WX    TMP DP  RH WIND       PRES   REMARKS
BURLINGTON     SUNNY     61  24  24 VRB3      30.30F
CEDAR RAPIDS   SUNNY     58  26  29 CALM      30.30F
DES MOINES     MOSUNNY   63  32  31 SE10      30.26F
KIRKSVILLE     SUNNY     64  36  35 SE7       30.28F
OTTUMWA        SUNNY     60  30  32 VRB3      30.28F
ST LOUIS       MOSUNNY   69  40  34 N7        30.27F
$$


CITY           SKY/WX    TMP DP  RH WIND       PRES   REMARKS
TERRE HAUTE    SUNNY     69  42  37 NW6       30.26F
EVANSVILLE     MOSUNNY   72  38  29 N9        30.24F
INDIANAPOLIS   PTSUNNY   68  38  33 W7        30.25F
LAFAYETTE      MOSUNNY   66  39  37 NW10G17   30.27F
MADISON        MOSUNNY   53  28  38 VRB5      30.34F
MILWAUKEE      MOSUNNY   43  31  62 NE10      30.37F
$$





USA.gov is the U.S. government's official web portal to all federal, state and local government web resources and services.